User: anonymous   Login
Location: Buttermere
(51.3333°N, 1.5167°W)
Time: 14:46:18
(UTC+00:00)
Language:

Resurs 01 Rocket - Orbit

View from above orbital plane
View from above orbital plane
View from above satellite
View from above satellite

Ground track
Ground track

The orbit data is extracted from the following two-line orbital elements,

1 23343U 94074B   21206.93010616  .00000056  00000-0  15136-4 0  9997
2 23343  97.9434 260.9714 0005563 295.6649 237.2331 14.76891045437967
Epoch (UTC): 25 July 2021 22:19:21
Eccentricity: 0.0005563
inclination: 97.9434°
perigee height: 635 km
apogee height: 643 km
right ascension of ascending node: 260.9714°
argument of perigee: 295.6649°
revolutions per day: 14.76891045
mean anomaly at epoch: 237.2331°
orbit number at epoch: 43796

The dashed part of the orbit path shows where the satellite is in the earth's shadow,  

DLR